User: anonymous   Login
Location: Unspecified
(0.0000°N, 0.0000°E)
Time: 02:13:03
(UTC+00:00)
Language:

ONEWEB-0330 - Orbit

View from above orbital plane
View from above orbital plane
View from above satellite
View from above satellite

Ground track
Ground track

The orbit is defined by the following mean orbital elements,

1 49108U          26145.34883196 +.00000000 +00000-0 -22066-4 0 00006
2 49108  87.9155  10.4306 0001745  92.3598 267.7733 13.17648596    01
Epoch (UTC): 25 May 2026 08:22:19
Eccentricity: 0.0001745
inclination: 87.9155°
perigee height: 1192 km
apogee height: 1195 km
right ascension of ascending node: 10.4306°
argument of perigee: 92.3598°
revolutions per day: 13.17648596
mean anomaly at epoch: 267.7733°

The dashed part of the orbit path shows where the satellite is in the earth's shadow,  

DLR